Date String (YYYY-MM-DD hh:mm:ss) UTC,Instrument flags,absolute air pressure of the measurement (hPa),sample flow rate (lpm),inlet stack bypass flow (lpm),air temperature of the measurement (°C),ambient temperature measured by the external sensor (°C),aerosol sample conditioner tube jacket temperature (°C),OPC LED temperature (°C),internal box temperature (°C),relative humidity of the measurement (%),span deviation,mass concentration of particles derived from Lorenz-Mie calculation of OPC scattering (μg/m³),mass concentration of particles derived from Lorenz-Mie calculation of OPC scattering (μg/m³),mass concentration of particles derived from Lorenz-Mie calculation of OPC scattering (μg/m³)
DateTimeUTC,F1_M11,P_M11,Q1_M11,Q2_M11,T1_M11,T2_M11,T3_M11,T4_M11,T5_M11,U1_M11,ZSPAN_M11,X2_M11,X0_M11,X1_M11
2024-02-18 20:00:00,SystemResetWarning,0823.0,5.00,000.00,020.2,019.8,000.0,028.5,022.0,10.3,0000.0,0001.91,0003.44,0001.54
2024-02-18 20:01:00,SystemResetWarning,0823.1,4.99,000.00,020.2,019.8,000.0,028.5,022.0,10.5,0000.0,0001.93,0003.44,0001.55
2024-02-18 20:02:00,SystemResetWarning,0823.0,5.01,000.00,020.2,019.8,000.0,028.5,022.0,10.5,0000.0,0001.91,0003.37,0001.56
2024-02-18 20:03:00,SystemResetWarning,0823.0,5.01,000.00,020.2,019.8,000.0,028.5,022.0,10.7,0000.0,0001.95,0004.40,0001.57
2024-02-18 20:04:00,SystemResetWarning,0823.0,5.01,000.00,020.2,019.8,000.0,028.5,022.0,10.6,0000.0,0002.01,0005.48,0001.61
2024-02-18 20:05:00,SystemResetWarning,0822.9,5.00,000.00,020.2,019.8,000.0,028.5,022.0,10.5,0000.0,0002.05,0006.03,0001.62
2024-02-18 20:06:00,SystemResetWarning,0823.2,5.00,000.00,020.3,019.8,000.0,028.5,022.0,10.6,0000.0,0002.07,0006.43,0001.64
2024-02-18 20:07:00,SystemResetWarning,0823.0,4.99,000.00,020.3,019.9,000.0,028.5,022.0,11.0,0000.0,0002.07,0006.39,0001.65
2024-02-18 20:08:00,SystemResetWarning,0822.9,4.99,000.00,020.3,019.9,000.0,028.6,022.1,10.8,0000.0,0002.07,0006.65,0001.68
2024-02-18 20:09:00,SystemResetWarning,0823.0,5.00,000.00,020.3,019.9,000.0,028.6,022.1,11.1,0000.0,0002.10,0006.77,0001.70
2024-02-18 20:10:00,SystemResetWarning,0822.9,5.01,000.00,020.3,019.9,000.0,028.6,022.1,10.6,0000.0,0002.14,0006.89,0001.73
2024-02-18 20:11:00,SystemResetWarning,0822.9,5.02,000.00,020.3,019.9,000.0,028.6,022.1,10.5,0000.0,0002.19,0006.99,0001.76
2024-02-18 20:12:00,SystemResetWarning,0823.3,5.00,000.00,020.3,019.9,000.0,028.6,022.1,10.6,0000.0,0002.22,0006.61,0001.78
2024-02-18 20:13:00,SystemResetWarning,0822.9,4.99,000.00,020.3,019.9,000.0,028.6,022.1,10.5,0000.0,0002.24,0006.73,0001.79
2024-02-18 20:14:00,SystemResetWarning,0823.0,5.00,000.00,020.3,019.9,000.0,028.6,022.1,10.3,0000.0,0002.23,0006.14,0001.79
2024-02-18 20:15:00,SystemResetWarning,0823.0,5.00,000.00,020.3,019.9,000.0,028.6,022.1,10.2,0000.0,0002.20,0005.06,0001.79
2024-02-18 20:16:00,SystemResetWarning,0823.0,5.01,000.00,020.4,019.9,000.0,028.6,022.1,10.2,0000.0,0002.20,0004.48,0001.81
2024-02-18 20:17:00,SystemResetWarning,0823.1,5.00,000.00,020.4,020.0,000.0,028.7,022.2,10.4,0000.0,0002.23,0004.07,0001.82
2024-02-18 20:18:00,SystemResetWarning,0822.7,5.01,000.00,020.4,020.0,000.0,028.7,022.2,11.0,0000.0,0002.23,0004.05,0001.83
2024-02-18 20:19:00,SystemResetWarning,0822.8,5.00,000.00,020.4,020.0,000.0,028.7,022.2,11.4,0000.0,0002.20,0003.80,0001.82
2024-02-18 20:20:00,SystemResetWarning,0822.7,4.99,000.00,020.4,020.0,000.0,028.7,022.2,11.0,0000.0,0002.23,0003.64,0001.84
2024-02-18 20:21:00,SystemResetWarning,0822.9,4.99,000.00,020.4,020.0,000.0,028.7,022.2,10.9,0000.0,0002.29,0004.23,0001.86
2024-02-18 20:22:00,SystemResetWarning,0822.7,5.00,000.00,020.4,020.0,000.0,028.7,022.2,11.0,0000.0,0002.30,0004.83,0001.87
2024-02-18 20:23:00,SystemResetWarning,0822.8,5.01,000.00,020.4,020.0,000.0,028.7,022.2,10.7,0000.0,0002.23,0004.58,0001.86
2024-02-18 20:24:00,SystemResetWarning,0823.0,5.01,000.00,020.4,020.0,000.0,028.7,022.2,10.7,0000.0,0002.20,0004.47,0001.85
2024-02-18 20:25:00,SystemResetWarning,0823.3,5.01,000.00,020.5,020.0,000.0,028.8,022.3,10.6,0000.0,0002.16,0004.22,0001.85
2024-02-18 20:26:00,SystemResetWarning,0823.2,4.99,000.00,020.5,020.1,000.0,028.8,022.3,10.5,0000.0,0002.15,0004.08,0001.87
2024-02-18 20:27:00,SystemResetWarning,0822.7,5.00,000.00,020.5,020.1,000.0,028.8,022.3,10.3,0000.0,0002.17,0004.09,0001.87
2024-02-18 20:28:00,SystemResetWarning,0822.6,5.00,000.00,020.5,020.1,000.0,028.8,022.3,10.4,0000.0,0002.15,0004.01,0001.87
2024-02-18 20:29:00,SystemResetWarning,0822.7,5.00,000.00,020.5,020.1,000.0,028.8,022.3,10.3,0000.0,0002.15,0003.95,0001.89
2024-02-18 20:30:00,SystemResetWarning,0822.6,5.00,000.00,020.5,020.1,000.0,028.8,022.3,10.4,0000.0,0002.23,0004.16,0001.93
2024-02-18 20:31:00,SystemResetWarning,0822.6,5.00,000.00,020.6,020.1,000.0,028.8,022.4,10.9,0000.0,0002.28,0004.23,0001.98
2024-02-18 20:32:00,SystemResetWarning,0822.6,5.00,000.00,020.6,020.2,000.0,028.8,022.4,10.7,0000.0,0002.25,0004.12,0002.00
2024-02-18 20:33:00,SystemResetWarning,0822.7,4.99,000.00,020.6,020.2,000.0,028.9,022.4,10.3,0000.0,0002.28,0003.42,0002.03
2024-02-18 20:34:00,SystemResetWarning,0822.7,5.00,000.00,020.6,020.2,000.0,028.9,022.4,10.3,0000.0,0002.32,0003.49,0002.05
2024-02-18 20:35:00,SystemResetWarning,0822.9,5.00,000.00,020.6,020.2,000.0,028.9,022.4,10.5,0000.0,0002.36,0003.57,0002.07
2024-02-18 20:36:00,SystemResetWarning,0822.7,5.00,000.00,020.6,020.2,000.0,028.9,022.4,11.1,0000.0,0002.42,0003.69,0002.10
2024-02-18 20:37:00,SystemResetWarning,0822.7,5.00,000.00,020.6,020.2,000.0,028.9,022.4,11.3,0000.0,0002.46,0003.93,0002.09
2024-02-18 20:38:00,SystemResetWarning,0822.6,5.00,000.00,020.6,020.2,000.0,028.9,022.5,11.5,0000.0,0002.44,0003.92,0002.10
2024-02-18 20:39:00,SystemResetWarning,0822.7,5.00,000.00,020.6,020.2,000.0,028.9,022.5,10.9,0000.0,0002.46,0003.98,0002.11
2024-02-18 20:40:00,SystemResetWarning,0822.7,5.00,000.00,020.7,020.2,000.0,028.9,022.5,10.8,0000.0,0002.50,0004.24,0002.10
2024-02-18 20:41:00,SystemResetWarning,0822.6,5.00,000.00,020.7,020.2,000.0,028.9,022.5,10.8,0000.0,0002.48,0004.18,0002.07
2024-02-18 20:42:00,SystemResetWarning,0822.7,5.00,000.00,020.7,020.2,000.0,028.9,022.5,10.6,0000.0,0002.44,0004.18,0002.04
2024-02-18 20:43:00,SystemResetWarning,0822.9,5.00,000.00,020.7,020.3,000.0,029.0,022.5,10.7,0000.0,0002.44,0004.24,0002.01
2024-02-18 20:44:00,SystemResetWarning,0822.8,5.00,000.00,020.7,020.3,000.0,029.0,022.5,10.5,0000.0,0002.42,0004.08,0002.00
2024-02-18 20:45:00,SystemResetWarning,0822.9,5.01,000.00,020.7,020.3,000.0,029.0,022.5,10.7,0000.0,0002.48,0004.43,0002.00
2024-02-18 20:46:00,SystemResetWarning,0822.9,5.01,000.00,020.7,020.3,000.0,029.0,022.5,10.5,0000.0,0002.51,0004.62,0002.00
2024-02-18 20:47:00,SystemResetWarning,0823.1,5.00,000.00,020.7,020.3,000.0,029.0,022.5,10.8,0000.0,0002.51,0004.63,0002.01
2024-02-18 20:48:00,SystemResetWarning,0822.9,4.99,000.00,020.7,020.3,000.0,029.0,022.5,10.8,0000.0,0002.49,0004.41,0002.02
2024-02-18 20:49:00,SystemResetWarning,0823.1,4.99,000.00,020.7,020.3,000.0,029.0,022.5,10.6,0000.0,0002.51,0004.51,0002.03
2024-02-18 20:50:00,SystemResetWarning,0822.6,5.00,000.00,020.8,020.3,000.0,029.0,022.6,11.0,0000.0,0002.55,0004.70,0002.06
2024-02-18 20:51:00,SystemResetWarning,0822.5,4.99,000.00,020.8,020.3,000.0,029.0,022.6,10.2,0000.0,0002.54,0004.61,0002.06
2024-02-18 20:52:00,SystemResetWarning,0822.9,5.00,000.00,020.8,020.4,000.0,029.0,022.6,10.4,0000.0,0002.52,0004.49,0002.07
2024-02-18 20:53:00,SystemResetWarning,0822.8,5.01,000.00,020.8,020.4,000.0,029.1,022.6,10.4,0000.0,0002.54,0004.50,0002.09
2024-02-18 20:54:00,SystemResetWarning,0822.6,5.01,000.00,020.8,020.4,000.0,029.1,022.6,10.9,0000.0,0002.58,0004.44,0002.10
2024-02-18 20:55:00,SystemResetWarning,0823.0,5.01,000.00,020.8,020.4,000.0,029.1,022.6,11.0,0000.0,0002.58,0004.72,0002.10
2024-02-18 20:56:00,SystemResetWarning,0822.7,5.00,000.00,020.8,020.4,000.0,029.1,022.6,11.2,0000.0,0002.50,0004.54,0002.09
2024-02-18 20:57:00,SystemResetWarning,0822.7,4.99,000.00,020.8,020.4,000.0,029.1,022.6,11.0,0000.0,0002.45,0004.30,0002.09
2024-02-18 20:58:00,SystemResetWarning,0822.9,4.99,000.00,020.8,020.4,000.0,029.1,022.7,11.2,0000.0,0002.46,0004.58,0002.08
2024-02-18 20:59:00,SystemResetWarning,0822.4,5.01,000.00,020.9,020.4,000.0,029.1,022.7,11.1,0000.0,0002.49,0004.84,0002.09
